Location: Mahannah Oil Field
(37.4664°N, 96.6003°W)
Time: 02:10:03
(UTC+00:00)

A-11 Canister half - Pass Details

Date: 25 January 2021
Orbit: 1525 x 1684 km, 47.3° (Epoch: 02 March)

Event Time Altitude Azimuth Distance (km) Brightness Sun altitude
Rises 21:59:14 0° 262° (W) 4,673 12.5 16.7°
Reaches altitude 10° 22:02:22 10° 267° (W) 3,700 12.0 16.2°
Maximum altitude 22:11:29 55° 344° (NNW) 1,826 9.5 14.8°
Drops below altitude 10° 22:20:54 10° 61° (ENE) 3,805 10.5 13.3°
Sets 22:24:10 0° 66° (ENE) 4,814 11.0 12.8°
